RH
78 93 94 93 93 94 92 92 93 93 92 93 92 92 92 92 93 92 92 91 90 86 81 81 85 84 83 82 86 87 87 88 88 87 84 80 77 77 83 86 84 76 86
76 87 94 94 93 94 93 92 93 92 93 93 92 92 92 92 93 93 92 90 89 85 80 82 86 85 83 85 89 88 89 90 88 86 85 83 81 78 80 87 88 85 88
74 84 88 94 94 94 93 93 92 91 92 92 92 92 92 92 93 92 92 91 89 86 81 82 83 81 82 88 90 90 90 90 89 88 86 80 84 81 80 87 88 87 88
69 84 88 95 95 95 94 93 92 91 92 92 92 93 93 93 92 92 92 91 88 86 83 81 81 82 88 90 90 89 88 88 89 88 89 78 70 82 79 84 85 86 86
70 72 85 95 96 96 95 94 93 93 93 92 92 93 93 93 92 92 93 92 89 87 84 80 84 88 90 90 89 88 88 88 86 81 87 86 82 78 79 84 86 85 83
68 73 94 96 96 96 95 94 94 94 95 94 93 93 93 93 93 92 93 92 90 88 87 86 88 90 91 91 89 87 86 84 85 85 86 85 83 78 77 83 84 85 82
82 86 89 95 96 96 95 95 95 95 95 94 94 94 94 94 94 92 93 92 91 90 92 92 91 91 91 90 89 86 86 85 81 93 84 92 86 82 77 84 86 85 85
84 89 90 93 95 96 96 96 96 96 96 95 95 94 94 95 94 93 93 93 92 94 94 92 92 91 91 90 89 86 89 89 71 91 92 92 86 82 79 83 86 87 86
87 88 94 94 93 96 98 98 98 97 96 96 96 95 95 96 95 94 94 94 94 94 93 92 92 92 90 89 89 88 89 90 78 90 77 92 87 82 79 82 87 88 87
92 94 93 94 96 98 99 99 99 98 97 96 96 96 96 96 95 94 95 94 95 94 92 92 92 91 91 89 88 91 90 87 80 81 89 82 84 81 80 82 85 87 86
78 94 94 90 90 95 97 96 98 98 98 97 96 97 99 97 96 95 96 96 95 94 92 92 92 92 91 89 88 87 89 79 79 88 85 89 85 79 80 85 88 87 86
32 85 91 85 84 84 71 95 99 97 98 98 97 96 98 98 97 91 94 96 96 94 93 93 92 94 94 93 92 88 87 78 82 82 90 90 86 80 80 86 88 86 84
13 19 62 85 85 77 69 89 95 97 99 98 97 98 97 92 95 94 98 95 99 95 97 96 97 97 91 90 90 90 83 77 84 89 83 88 86 78 79 81 86 85 85
14 15 25 54 86 80 70 78 83 87 94 95 94 97 97 94 94 94 95 99 98 97 97 98 99 96 91 84 84 84 78 80 93 86 87 92 87 82 79 80 80 82 85
29 23 20 32 53 88 83 77 75 77 85 88 89 93 90 88 93 88 94 96 95 95 91 94 96 89 89 85 83 75 71 70 81 92 87 92 90 86 81 78 78 78 80
38 40 43 41 32 59 85 81 86 76 76 80 82 86 89 84 85 88 94 92 90 89 84 85 85 85 82 83 80 68 68 66 74 86 80 90 91 89 85 83 80 79 78
43 45 48 48 44 52 85 81 86 88 86 75 76 81 85 83 89 82 92 88 86 86 80 81 81 81 85 80 75 69 71 68 60 70 75 78 84 94 92 87 84 82 82
47 51 51 48 52 56 64 82 80 92 89 88 72 77 81 80 86 83 84 88 89 86 77 86 75 90 77 76 80 73 71 74 68 67 72 71 74 74 88 92 90 87 86
48 52 56 55 56 56 62 70 82 75 91 82 88 82 80 78 84 81 80 84 91 86 84 78 81 84 90 84 78 77 74 71 70 64 67 71 72 71 74 89 92 91 90
48 51 56 58 59 59 61 69 70 93 82 86 88 79 83 78 78 84 80 85 87 86 86 87 88 92 87 78 67 74 76 76 74 73 71 72 78 76 76 76 85 86 93
49 52 59 64 65 64 64 69 74 58 83 83 78 74 72 80 80 81 80 87 81 83 84 87 91 91 92 87 81 91 87 80 78 76 73 79 78 80 83 79 76 78 82
54 55 59 65 66 66 66 65 72 66 87 81 79 72 77 71 83 75 79 82 83 84 88 89 80 95 94 96 93 94 92 91 90 86 88 86 84 79 76 82 85 82 80
61 60 61 66 70 69 66 69 75 80 85 87 85 81 73 73 72 81 74 81 82 79 84 87 84 76 90 96 91 91 97 96 95 95 90 89 86 88 78 78 82 82 86
66 64 67 65 69 66 70 77 85 91 72 45 62 68 68 65 71 83 78 80 81 79 81 88 84 82 84 87 97 91 91 92 94 95 96 89 89 85 86 88 82 83 82
68 66 66 67 72 72 72 74 82 89 89 81 83 84 79 75 78 77 83 82 84 79 82 89 90 89 88 87 84 97 94 97 96 95 96 97 97 92 90 89 94 90 81
72 74 70 71 73 75 76 76 81 84 89 92 85 82 82 79 76 72 82 79 86 84 86 91 91 88 88 85 86 87 85 88 93 95 98 95 95 96 94 96 95 94 90
Wind_Speed
4 5 10 13 16 16 16 15 15 15 13 12 12 11 13 15 14 13 13 13 11 12 12 10 8 8 10 12 10 12 13 13 13 12 13 14 15 13 11 13 12 12 12
13 7 8 12 14 15 15 15 14 16 15 13 12 12 12 13 14 11 11 12 10 10 11 9 8 10 10 10 10 10 12 12 12 12 13 14 13 11 13 12 11 10 13
12 10 8 11 13 14 15 16 15 15 15 15 13 11 12 12 13 11 10 12 10 10 9 9 9 10 9 9 9 10 10 10 11 12 11 5 6 13 14 12 11 12 13
13 10 7 9 13 13 14 16 15 16 15 16 15 13 11 12 12 11 9 10 10 10 9 9 9 9 9 9 9 9 9 9 9 8 4 4 8 12 14 11 11 13 15
12 10 8 7 11 12 12 14 14 15 14 14 15 15 12 12 12 12 10 8 9 9 9 10 9 8 9 8 8 8 7 10 9 6 4 4 5 10 13 12 11 12 11
11 10 11 7 8 10 10 11 13 13 13 14 14 15 15 12 12 12 11 9 8 8 9 10 9 9 8 7 6 9 7 9 8 4 3 4 5 12 13 12 11 13 13
8 8 11 14 9 9 10 11 12 12 13 13 14 14 15 14 12 12 11 10 9 9 10 10 9 9 7 6 4 7 8 5 7 3 4 2 5 12 14 13 13 13 13
12 8 7 10 12 10 9 10 10 11 12 13 14 14 14 14 13 12 10 10 10 10 10 10 10 9 6 5 3 4 7 4 5 7 4 4 9 13 16 14 13 13 15
10 10 7 7 7 9 9 9 9 10 11 12 12 13 14 14 13 12 11 10 10 10 10 9 11 10 7 5 2 2 2 3 4 7 9 4 12 13 16 15 14 15 15
6 6 9 8 8 6 6 8 8 9 10 11 12 12 12 13 13 13 12 10 10 10 10 10 10 10 8 5 2 1 4 7 4 7 4 6 13 16 17 16 16 15 15
4 5 6 7 8 8 7 7 9 9 9 9 10 11 10 6 9 11 10 12 11 10 10 11 10 9 8 6 4 2 3 1 5 4 4 12 13 17 17 16 15 14 13
2 5 6 9 10 10 8 7 7 8 6 7 7 9 6 6 7 9 10 13 12 11 10 10 10 10 7 3 3 3 1 2 4 4 4 12 15 17 16 16 15 14 13
8 3 5 5 8 11 10 7 5 5 6 6 9 9 7 6 7 6 5 6 6 9 5 5 5 4 5 4 4 4 4 2 3 2 6 14 14 17 16 16 15 14 12
8 8 4 2 6 9 8 9 9 7 7 7 8 10 8 6 7 6 6 7 7 6 6 5 4 5 6 6 6 6 6 3 4 3 2 4 14 16 17 17 17 15 13
22 20 14 2 0 8 9 7 10 10 10 10 10 11 9 8 7 8 8 8 8 7 7 7 6 6 6 6 6 8 5 6 6 5 5 9 10 14 16 18 17 16 15
21 22 23 24 9 6 10 13 9 9 11 11 11 11 14 10 8 9 8 9 8 8 8 8 8 7 7 5 6 8 6 5 7 6 5 6 12 13 14 16 18 17 17
19 22 23 25 24 14 7 10 9 9 9 10 11 14 16 12 10 11 8 9 9 8 10 8 8 7 5 5 7 7 6 6 5 8 7 6 6 5 7 14 15 16 17
21 23 24 22 24 20 22 10 7 7 8 11 10 12 17 16 13 12 10 9 8 8 9 7 8 5 8 8 5 5 6 5 6 6 7 7 6 6 8 10 11 13 14
20 22 24 24 24 24 20 16 12 12 7 8 10 10 18 18 15 13 11 10 10 9 9 10 7 7 4 4 4 4 4 5 6 5 8 9 9 7 6 10 13 14 14
18 19 20 20 22 25 16 14 13 7 10 9 8 12 17 16 17 12 11 12 11 9 10 8 6 3 4 6 5 4 4 4 4 4 6 5 7 9 8 8 8 8 12
22 21 21 23 24 18 16 14 14 13 6 8 11 13 16 17 19 17 12 12 13 12 12 11 6 7 4 5 3 1 2 5 6 5 4 5 7 7 8 8 7 7 7
21 21 22 20 21 19 13 14 12 15 7 8 9 14 15 18 19 19 17 14 15 11 12 12 13 5 5 5 5 3 2 4 3 5 5 5 7 6 8 8 8 8 8
21 21 22 22 21 19 21 15 14 14 7 5 8 9 15 18 21 20 19 14 15 13 13 14 13 16 8 5 7 6 3 6 3 3 8 6 7 5 6 7 10 10 9
19 20 20 22 23 17 20 16 16 13 13 10 10 11 14 20 23 19 20 17 16 13 14 13 12 13 11 11 3 5 3 6 5 2 3 6 7 8 7 5 6 8 9
18 19 20 21 21 20 18 17 15 16 12 10 8 10 15 17 20 23 20 20 17 15 14 15 14 13 11 10 10 4 6 3 2 2 2 3 2 3 5 6 5 5 8
17 18 20 22 23 21 19 19 18 18 17 12 12 10 12 13 16 26 24 22 18 17 16 14 16 17 15 11 10 8 8 9 9 7 3 4 5 4 4 4 5 6 6
Wind_Direction
99 140 139 134 129 129 130 130 129 126 124 119 115 108 106 103 98 98 99 93 95 100 105 105 97 90 87 86 88 89 95 99 95 100 98 99 101 104 103 104 109 110 110
127 145 143 132 130 131 133 133 135 135 133 127 123 119 114 110 106 101 102 98 100 108 111 106 102 94 91 92 92 97 102 105 109 104 99 97 96 98 107 100 100 109 109
134 145 151 137 130 135 139 140 143 142 139 135 131 127 125 121 116 112 108 106 105 108 121 119 117 105 102 101 107 106 114 121 120 117 106 99 95 102 104 104 108 114 114
141 141 142 140 133 137 145 146 148 146 148 143 138 136 135 127 122 120 118 115 116 117 128 125 121 113 109 113 119 123 123 112 89 72 87 121 102 105 108 110 114 115 108
132 136 138 140 132 138 148 148 149 150 151 149 144 141 141 137 132 129 130 126 127 128 132 130 119 115 116 124 131 127 117 96 71 40 43 95 120 118 115 115 112 111 114
135 126 132 123 126 134 147 150 152 152 154 153 149 146 145 147 141 139 142 143 140 132 126 125 122 119 128 136 152 125 112 101 94 73 28 317 116 124 122 117 121 118 122
89 123 145 136 137 140 150 158 158 157 157 158 153 153 150 150 147 147 148 148 145 134 125 126 128 130 144 147 166 116 103 97 120 143 183 294 136 128 121 117 115 120 122
126 125 136 136 145 153 158 165 163 163 163 165 161 159 155 151 151 151 152 152 148 141 138 138 137 138 151 152 170 111 103 87 89 166 195 183 142 128 122 122 121 122 125
127 134 140 143 151 154 162 170 170 169 171 171 166 166 158 154 152 152 156 159 155 150 147 147 145 148 154 162 191 59 63 78 107 147 159 161 132 135 132 130 128 129 129
128 141 156 160 158 159 161 171 170 175 180 176 170 168 161 155 156 157 160 164 161 157 156 155 154 156 157 173 200 346 359 23 113 130 160 147 147 143 139 141 141 138 139
117 167 161 167 172 162 170 180 173 177 181 183 174 165 152 165 162 162 163 162 165 167 167 161 163 160 160 175 198 249 358 79 122 138 140 147 152 146 148 148 146 148 150
322 189 201 181 180 172 176 168 172 176 182 185 181 174 173 167 171 169 171 167 169 170 170 168 169 163 160 178 217 239 242 144 142 148 148 155 155 150 154 152 152 156 160
324 65 267 244 192 183 185 163 181 182 179 185 185 177 180 179 178 175 162 170 164 166 167 167 166 181 190 189 206 215 230 171 143 106 173 157 159 156 159 161 162 165 166
335 320 41 144 230 221 203 177 175 181 181 186 192 185 184 186 180 174 171 167 166 167 167 170 182 193 205 211 202 220 215 135 154 132 170 190 160 160 164 170 176 175 170
2 344 336 339 150 224 244 209 177 187 184 186 187 188 190 193 184 178 172 171 175 170 173 179 183 200 213 214 209 208 219 164 168 161 167 194 185 166 173 176 184 187 184
358 353 338 349 297 277 233 235 209 186 191 184 188 190 192 195 190 183 176 176 177 176 181 179 186 197 215 201 211 199 205 212 169 159 169 187 198 176 178 185 190 196 195
356 351 348 340 348 326 273 241 221 202 181 198 191 189 191 198 187 184 176 183 180 176 183 184 194 198 198 215 198 196 193 205 189 175 176 184 194 208 213 187 193 198 197
0 355 339 338 338 343 336 299 248 244 208 181 206 188 192 197 192 185 186 187 179 171 185 180 194 188 201 198 210 209 197 189 189 168 173 181 186 192 206 209 200 199 203
358 350 342 339 334 338 330 321 293 245 249 215 184 208 190 196 191 188 189 188 185 186 186 193 189 171 173 176 195 203 207 199 189 179 179 178 183 192 192 208 210 204 203
353 350 340 337 333 332 330 326 313 269 250 246 229 209 197 194 194 187 189 188 188 192 190 189 176 177 164 190 177 177 190 221 196 197 196 185 184 184 186 193 202 212 206
348 347 346 335 333 332 329 326 326 287 257 246 241 239 215 206 192 186 188 185 192 192 194 189 168 169 188 169 139 163 181 205 181 195 195 197 212 186 189 189 192 195 202
341 340 339 335 329 325 320 316 305 288 243 239 237 238 239 222 201 195 185 189 188 189 191 187 189 160 175 169 158 124 185 315 279 226 209 205 212 213 195 187 191 188 198
343 340 335 330 326 321 320 319 319 326 275 237 241 243 240 234 213 200 193 181 185 190 194 191 189 192 180 179 172 150 150 213 170 222 225 204 195 206 216 202 196 197 192
340 336 330 331 325 322 322 320 316 300 296 266 244 235 238 239 222 204 196 189 183 186 191 189 186 190 176 186 176 199 166 152 182 197 253 220 193 201 218 208 199 202 195
342 339 333 327 325 325 328 320 318 309 305 304 280 243 239 242 232 216 202 191 189 188 185 182 188 188 190 184 195 162 207 182 156 147 206 281 287 194 202 215 197 214 203
343 341 339 334 329 329 328 322 320 318 312 310 297 270 244 244 241 226 206 196 187 185 178 179 188 191 192 196 198 199 197 197 208 203 182 192 211 225 194 200 202 216 229